Location: Le Hiès Ruisseau
(43.3000°N, 0.4500°W)
Time: 01:37:45
(UTC+00:00)

Cosmos 1536 Rocket - Pass Details

Date: 28 January 2023
Orbit: 604 x 630 km, 82.5° (Epoch: 27 March)

Event Time Altitude Azimuth Distance (km) Brightness Sun altitude
Rises 18:12:26 0° 175° (S) 2,846 7.1 -11.9°
Reaches altitude 10° 18:14:40 10° 171° (S) 1,946 6.2 -12.3°
Maximum altitude 18:18:51 55° 94° (E) 733 3.6 -13.0°
Drops below altitude 10° 18:23:05 10° 17° (NNE) 1,963 5.8 -13.8°
Sets 18:25:21 0° 13° (NNE) 2,873 6.7 -14.2°
